[[{"header":{"parameterUnit":"m.s-1","parameterCategory":1,"la1":30.2991,"la2":30.254,"lo1":-89.0895,"lo2":-89.0444,"dy":0.0017,"dx":0.0017,"nx":28,"ny":28,"refTime":"2024-07-27T09:00:00:Z","depth":0,"parameterNumber":2,"parameterNumberName":"U-component_of_WINDS"},"data":[0,0,0,0,0,0,0,0,0,0,0,0,0,0,0,0,0,0,0,0,0,0,0,0,0,0,0,0,0,0,0,0,0,0,0,0,0,0,0,0,0,0,0,0,0,0,0,0,0,0,0,0,0,0,0,0,0,0,-3.0329,-3.033,0,-3.0464,-3.0466,-3.0467,-3.0517,-3.0516,-3.0516,-3.0515,-3.0651,-3.0655,-3.0659,0,0,0,0,0,0,0,0,0,0,0,0,0,-3.0108,-3.0111,-3.0329,-3.033,-3.0332,-3.0464,-3.0466,-3.0468,-3.0517,-3.0516,-3.0516,-3.0515,-3.065,-3.0654,-3.0659,0,0,0,0,0,0,0,0,0,0,0,0,0,-3.0219,-3.0113,-3.0328,-3.0372,-3.0378,-3.0464,-3.0466,-3.0468,-3.0517,-3.0516,-3.0516,-3.0515,-3.0648,-3.0654,-3.066,-3.0711,0,0,-3.0678,-3.0681,0,0,0,0,0,0,0,0,-3.0213,-3.0227,-3.0364,-3.037,-3.0376,-3.0473,-3.0438,-3.0549,-3.0517,-3.0464,-3.0515,-3.0515,-3.0592,-3.0603,-3.063,-3.0717,-3.0723,-3.0679,-3.0683,-3.0685,-3.0687,0,0,0,0,0,0,0,-3.0205,-3.0222,-3.0382,-3.0366,-3.0373,-3.0384,-3.0399,-3.0459,-3.053,-3.0469,-3.0473,-3.0488,-3.0595,-3.0624,-3.0633,-3.0725,-3.0679,-3.0684,-3.0688,-3.069,-3.0858,-3.0859,0,0,0,0,0,0,-3.0191,-3.0215,-3.0378,-3.0386,-3.0291,-3.0389,-3.0405,-3.0442,-3.053,-3.0542,-3.0488,-3.049,-3.0614,-3.0626,-3.0638,-3.0702,-3.0685,-3.0691,-3.0694,-3.0857,-3.0858,-3.0859,0,0,0,0,0,0,-3.0186,-3.0205,-3.0372,-3.0302,-3.0324,-3.0393,-3.0434,-3.0445,-3.0474,-3.0545,-3.0557,-3.0505,-3.0614,-3.0629,-3.0692,-3.0707,-3.0693,-3.0699,-3.0856,-3.0858,-3.0859,-3.083,0,0,0,0,0,0,-3.0179,-3.0203,-3.0224,-3.0302,-3.0328,-3.0425,-3.0435,-3.0449,-3.0485,-3.0488,-3.0563,-3.0575,-3.0614,-3.0683,-3.0698,-3.0715,-3.0704,-3.0855,-3.0857,-3.0858,-3.083,-3.0831,-3.0831,0,0,0,0,0,-3.0171,-3.021,-3.0225,-3.0244,-3.0356,-3.0426,-3.0441,-3.0486,-3.0486,-3.0507,-3.0552,-3.0573,-3.0703,-3.0689,-3.0706,-3.0726,-3.0855,-3.0857,-3.0858,-3.083,-3.0831,-3.0831,0,0,0,0,0,0,-3.0132,-3.0221,-3.0238,-3.0304,-3.0357,-3.0435,-3.0463,-3.0485,-3.0539,-3.0539,-3.0592,-3.0608,-3.0666,-3.0702,-3.0684,-3.0778,-3.078,-3.0785,-3.0752,-3.0753,-3.0754,-3.0743,-3.0709,0,0,0,0,0,-3.0131,-3.0182,-3.0257,-3.0308,-3.0333,-3.0393,-3.0426,-3.0456,-3.0512,-3.0535,-3.0584,-3.0637,-3.069,-3.0724,-3.0776,-3.0836,-3.0852,-3.0857,-3.0858,-3.0857,-3.0861,-3.0893,-3.0896,-3.0866,-3.0866,-3.0865,0,0,-3.0129,-3.0185,-3.0213,-3.0301,-3.0346,-3.0396,-3.0412,-3.0465,-3.0502,-3.0542,-3.0604,-3.0642,-3.0705,-3.0765,-3.0794,-3.0797,-3.0873,-3.086,-3.0859,-3.0863,-3.0896,-3.0898,-3.0901,-3.0867,-3.0867,-3.0866,0,0,-3.0152,-3.02,-3.0246,-3.029,-3.0358,-3.0397,-3.0408,-3.0482,-3.0509,-3.0572,-3.0603,-3.0647,-3.0737,-3.078,-3.0813,-3.0849,-3.087,-3.0865,-3.0866,-3.0896,-3.0899,-3.0901,-3.0913,-3.0916,-3.0869,-3.0869,-3.0868,0,-3.0141,-3.0219,-3.0267,-3.0318,-3.0355,-3.0394,-3.044,-3.0481,-3.0561,-3.0585,-3.0587,-3.07,-3.0745,-3.0815,-3.0823,-3.085,-3.0863,-3.0857,-3.0895,-3.0898,-3.0901,-3.0912,-3.0916,-3.0867,-3.0868,-3.0868,-3.0868,0,-3.0202,-3.0255,-3.0284,-3.0361,-3.0401,-3.045,-3.0503,-3.0538,-3.0563,-3.0602,-3.0664,-3.0719,-3.0783,-3.0802,-3.0827,-3.0875,-3.0874,-3.0885,-3.0888,-3.0902,-3.0913,-3.0918,-3.0866,-3.0866,-3.0867,-3.0867,0,0,-3.0204,-3.0306,-3.0316,-3.0351,-3.0427,-3.0468,-3.0517,-3.058,-3.0608,-3.0661,-3.0702,-3.0777,-3.0787,-3.0825,-3.0855,-3.0882,-3.0905,-3.089,-3.0892,-3.089,-3.0959,-3.095,-3.0954,-3.0919,-3.0921,-3.0921,-3.0953,0,-3.0236,-3.0327,-3.037,-3.0441,-3.0489,-3.0527,-3.0569,-3.0619,-3.0656,-3.0701,-3.0741,-3.0792,-3.0802,-3.0825,-3.0854,-3.0896,-3.092,-3.0895,-3.0957,-3.0958,-3.094,-3.0961,-3.0952,-3.098,-3.0958,-3.0959,-3.096,0,-3.0286,-3.0339,-3.0415,-3.0483,-3.0505,-3.0543,-3.0603,-3.0646,-3.0703,-3.0728,-3.0769,-3.0799,-3.0849,-3.0848,-3.0918,-3.09,-3.0928,-3.0952,-3.0955,-3.0962,-3.096,-3.0967,-3.099,-3.0993,-3.0968,-3.0967,-3.0966,0,-3.0278,-3.0369,-3.0426,-3.0454,-3.0536,-3.0561,-3.0596,-3.0653,-3.0687,-3.0739,-3.0761,-3.0818,-3.0849,-3.0891,-3.0934,-3.093,-3.0999,-3.1003,-3.102,-3.1019,-3.1033,-3.1031,-3.1059,-3.1051,-3.1051,-3.1051,-3.1051,0,-3.0308,-3.0353,-3.0423,-3.0458,-3.0508,-3.0556,-3.0604,-3.0642,-3.0691,-3.0733,-3.0768,-3.0806,-3.0861,-3.0905,-3.0939,-3.0991,-3.1005,-3.1025,-3.1033,-3.1021,-3.1019,-3.104,-3.1039,-3.1052,-3.1052,-3.1052,-3.1052,0,-3.0308,-3.0357,-3.0421,-3.0493,-3.0512,-3.0546,-3.0607,-3.0641,-3.0679,-3.0731,-3.0745,-3.0804,-3.0858,-3.0905,-3.0976,-3.0999,-3.1052,-3.1062,-3.1033,-3.1037,-3.1051,-3.1049,-3.1093,-3.1101,-3.1088,-3.1089,-3.1089,0,-3.0324,-3.0359,-3.0435,-3.0465,-3.05,-3.0549,-3.0584,-3.0632,-3.0667,-3.0733,-3.0759,-3.0815,-3.0863,-3.0947,-3.0995,-3.1049,-3.1061,-3.1072,-3.1069,-3.1055,-3.106,-3.1057,-3.106,-3.1072,-3.1072,-3.1072,-3.1072,0,-3.0346,-3.0368,-3.0418,-3.0476,-3.0517,-3.0564,-3.0613,-3.0636,-3.0693,-3.073,-3.0785,-3.0822,-3.0895,-3.0949,-3.1008,-3.1043,-3.1066,-3.1072,-3.1079,-3.1067,-3.1048,-3.1058,-3.1031,-3.1071,-3.1071,-3.1071,-3.1071,-3.1071,-3.0354,-3.0386,-3.0444,-3.0498,-3.0539,-3.0583,-3.0619,-3.0661,-3.0708,-3.0771,-3.0797,-3.0853,-3.0907,-3.0989,-3.1023,-3.1067,-3.1071,-3.1081,-3.1083,-3.1085,-3.1082,-3.1041,-3.1077,-3.1078,-3.1078,-3.1078,-3.1078,0,-3.0377,-3.0416,-3.0465,-3.0531,-3.0573,-3.0592,-3.0646,-3.0679,-3.0729,-3.0778,-3.0824,-3.0887,-3.094,-3.0992,-3.1047,-3.1072,-3.1084,-3.1085,-3.1083,-3.109,-3.1076,-3.1064,-3.1074,-3.1074,-3.1074,-3.1074,-3.1074,-3.1074,-3.0394,-3.0449,-3.0477,-3.0553,-3.0591,-3.0647,-3.0676,-3.0716,-3.0755,-3.0824,-3.0869,-3.0903,-3.0952,-3.1011,-3.106,-3.1074,-3.1092,-3.109,-3.1106,-3.1092,-3.1092,-3.1091,-3.1081,-3.1094,-3.1094,-3.1118,-3.1118,-3.1118]},{"header":{"parameterUnit":"m.s-1","parameterCategory":1,"la1":30.2991,"la2":30.254,"lo1":-89.0895,"lo2":-89.0444,"dy":0.0017,"dx":0.0017,"nx":28,"ny":28,"refTime":"2024-07-27T09:00:00:Z","depth":0,"parameterNumber":3,"parameterNumberName":"V-component_of_WINDS"},"data":[0,0,0,0,0,0,0,0,0,0,0,0,0,0,0,0,0,0,0,0,0,0,0,0,0,0,0,0,0,0,0,0,0,0,0,0,0,0,0,0,0,0,0,0,0,0,0,0,0,0,0,0,0,0,0,0,0,0,3.2524,3.2524,0,3.2544,3.2544,3.2544,3.2415,3.2411,3.2407,3.2404,3.2426,3.243,3.2434,0,0,0,0,0,0,0,0,0,0,0,0,0,3.2373,3.2376,3.2524,3.2524,3.2524,3.2544,3.2544,3.2544,3.2415,3.2411,3.2406,3.2402,3.2425,3.2429,3.2434,0,0,0,0,0,0,0,0,0,0,0,0,0,3.242,3.2377,3.2524,3.2462,3.2457,3.2544,3.2544,3.2544,3.2416,3.2411,3.2405,3.24,3.2423,3.2429,3.2435,3.2582,0,0,3.2453,3.2456,0,0,0,0,0,0,0,0,3.2418,3.2426,3.2471,3.2467,3.2461,3.2471,3.2499,3.2557,3.2418,3.2432,3.2404,3.2397,3.2446,3.2449,3.2465,3.2583,3.2584,3.2454,3.2458,3.246,3.2462,0,0,0,0,0,0,0,3.2415,3.2424,3.2532,3.2472,3.2466,3.2433,3.2434,3.2509,3.2469,3.243,3.2421,3.2425,3.2442,3.246,3.2465,3.2585,3.2454,3.2459,3.2463,3.2465,3.2821,3.2827,0,0,0,0,0,0,3.242,3.2423,3.2531,3.2532,3.2425,3.244,3.2441,3.2473,3.2468,3.2462,3.2429,3.2419,3.2452,3.2458,3.2465,3.2635,3.246,3.2466,3.2469,3.2815,3.2823,3.2829,0,0,0,0,0,0,3.2417,3.2431,3.253,3.2475,3.2485,3.2449,3.2486,3.2477,3.2494,3.2468,3.246,3.2455,3.2448,3.2457,3.2553,3.2634,3.2468,3.2474,3.2809,3.2818,3.2826,3.2978,0,0,0,0,0,0,3.2413,3.243,3.2487,3.2477,3.2489,3.2619,3.2491,3.2481,3.2505,3.2491,3.249,3.2484,3.2444,3.2545,3.2559,3.264,3.2479,3.2801,3.2813,3.2823,3.2966,3.2991,3.3013,0,0,0,0,0,3.2408,3.253,3.249,3.2504,3.2558,3.2624,3.263,3.2581,3.2512,3.2568,3.255,3.2484,3.2623,3.2556,3.2571,3.2654,3.2796,3.2809,3.2822,3.2955,3.2986,3.3012,0,0,0,0,0,0,3.2551,3.2528,3.2483,3.2605,3.2617,3.2602,3.2671,3.2616,3.2649,3.2635,3.2573,3.2573,3.268,3.2677,3.2602,3.2795,3.2697,3.2714,3.2793,3.2823,3.2846,3.2844,3.2484,0,0,0,0,0,3.2597,3.2652,3.2628,3.2738,3.2747,3.2708,3.2735,3.2696,3.2706,3.2711,3.27,3.2713,3.2758,3.279,3.2831,3.2965,3.2961,3.3029,3.3052,3.3072,3.3087,3.3155,3.3184,3.2872,3.2872,3.2872,0,0,3.2692,3.2686,3.2725,3.2767,3.2772,3.283,3.2713,3.278,3.2823,3.2721,3.2811,3.2804,3.2813,3.2928,3.2978,3.2929,3.3172,3.3089,3.3104,3.3109,3.3171,3.3201,3.3227,3.2881,3.2879,3.2878,0,0,3.2894,3.2896,3.2986,3.2993,3.3001,3.2974,3.2995,3.2988,3.2978,3.3067,3.2991,3.3041,3.3122,3.3131,3.3147,3.3349,3.329,3.3365,3.3487,3.3554,3.3579,3.36,3.3671,3.3697,3.338,3.338,3.338,0,3.3012,3.3096,3.304,3.3111,3.3131,3.304,3.3131,3.314,3.3162,3.3177,3.3121,3.3219,3.3219,3.3334,3.3383,3.3399,3.3421,3.3365,3.3579,3.36,3.362,3.3686,3.3713,3.3389,3.3388,3.3387,3.3386,0,3.3239,3.3298,3.337,3.3391,3.3419,3.3501,3.3456,3.3491,3.3449,3.3428,3.3518,3.3515,3.3552,3.3577,3.3537,3.3685,3.3654,3.359,3.349,3.3659,3.3721,3.3746,3.3402,3.3399,3.3396,3.3394,0,0,3.3534,3.3521,3.3548,3.3555,3.3556,3.36,3.3676,3.3712,3.3742,3.376,3.3821,3.389,3.3829,3.3847,3.3808,3.3866,3.4025,3.3794,3.3793,3.3836,3.4185,3.4233,3.4264,3.3985,3.3989,3.3993,3.4184,0,3.373,3.3858,3.3809,3.394,3.3993,3.3906,3.3972,3.3979,3.3961,3.4003,3.3982,3.4032,3.3949,3.3959,3.4013,3.3994,3.4094,3.398,3.404,3.4043,3.404,3.4296,3.4347,3.4527,3.4208,3.4212,3.4215,0,3.3977,3.4002,3.4139,3.4127,3.4148,3.4208,3.4234,3.4276,3.4282,3.4264,3.4282,3.4229,3.4301,3.4202,3.43,3.4224,3.4246,3.424,3.4246,3.4249,3.4139,3.4305,3.4584,3.461,3.4252,3.4249,3.4247,0,3.4177,3.4245,3.4334,3.4343,3.4333,3.4376,3.4374,3.4374,3.4397,3.4421,3.4435,3.4468,3.4486,3.4512,3.4469,3.4401,3.4573,3.447,3.4559,3.456,3.4599,3.4597,3.4884,3.4615,3.4615,3.4614,3.4614,0,3.4401,3.4487,3.4423,3.4479,3.4572,3.4514,3.4608,3.4596,3.4596,3.4647,3.4575,3.4624,3.4564,3.4607,3.4574,3.4659,3.4668,3.4655,3.4645,3.4661,3.4663,3.4674,3.466,3.4621,3.462,3.4618,3.4617,0,3.464,3.46,3.4692,3.4673,3.467,3.474,3.4724,3.4773,3.4749,3.4814,3.4826,3.4788,3.4835,3.4794,3.484,3.4817,3.493,3.4902,3.4928,3.492,3.5011,3.5002,3.5314,3.5352,3.506,3.5063,3.5065,0,3.4785,3.4849,3.4836,3.4864,3.4866,3.4912,3.4935,3.4879,3.4906,3.4916,3.4964,3.5005,3.5034,3.5113,3.509,3.5124,3.5096,3.5203,3.5101,3.5114,3.5096,3.5092,3.5097,3.5224,3.5227,3.523,3.5232,0,3.5046,3.5023,3.5058,3.5086,3.5115,3.5135,3.5149,3.5176,3.5118,3.5152,3.5198,3.5221,3.5266,3.5307,3.5333,3.533,3.5272,3.5264,3.5286,3.5303,3.5315,3.5308,3.4983,3.5258,3.5255,3.5253,3.5252,3.5251,3.5242,3.5293,3.5291,3.5332,3.5336,3.5351,3.5396,3.5375,3.5413,3.5444,3.5409,3.5465,3.5467,3.5495,3.5499,3.5542,3.5497,3.553,3.5538,3.5547,3.5559,3.5309,3.5547,3.5546,3.5545,3.5545,3.5544,0,3.5498,3.5491,3.5529,3.555,3.5582,3.5523,3.5534,3.5565,3.5615,3.5621,3.565,3.5702,3.5741,3.5719,3.5752,3.5791,3.5765,3.5801,3.5797,3.5797,3.5598,3.5575,3.5821,3.5821,3.5821,3.5821,3.5821,3.5821,3.5635,3.5718,3.5694,3.5778,3.5771,3.5825,3.5836,3.5848,3.5852,3.5913,3.5944,3.5929,3.5924,3.5955,3.5988,3.598,3.5995,3.6041,3.6025,3.5839,3.5812,3.5786,3.5763,3.6045,3.6046,3.622,3.6221,3.6223]}]]